Time,TemperatureF,DewpointF,PressureIn,WindDirection,WindDirectionDegrees,WindSpeedMPH,WindSpeedGustMPH,Humidity,HourlyPrecipIn,Conditions,Clouds,dailyrainin,SoftwareType,DateUTC
2013-05-05 00:04:00,39.6,36.0,30.16,NE,39,0.0,-999.0,88,-99.99,,,0.00,weatherlink.com 1.10,2013-05-05 05:04:00,
2013-05-05 00:19:00,39.6,36.0,30.16,NE,38,0.0,-999.0,88,-99.99,,,0.00,weatherlink.com 1.10,2013-05-05 05:19:00,
2013-05-05 00:34:00,39.6,37.0,30.16,ENE,66,3.0,-999.0,89,-99.99,,,0.00,weatherlink.com 1.10,2013-05-05 05:34:00,
2013-05-05 00:49:00,39.5,37.0,30.16,ENE,65,1.0,-999.0,89,-99.99,,,0.00,weatherlink.com 1.10,2013-05-05 05:49:00,
2013-05-05 01:04:00,39.3,36.0,30.16,ENE,69,1.0,-999.0,89,-99.99,,,0.00,weatherlink.com 1.10,2013-05-05 06:04:00,
2013-05-05 01:19:00,39.2,36.0,30.16,ENE,69,0.0,-999.0,89,-99.99,,,0.00,weatherlink.com 1.10,2013-05-05 06:19:00,
2013-05-05 01:34:00,39.1,37.0,30.15,NE,44,0.0,-999.0,90,-99.99,,,0.00,weatherlink.com 1.10,2013-05-05 06:34:00,
2013-05-05 01:49:00,39.0,36.0,30.15,NE,44,0.0,-999.0,90,-99.99,,,0.00,weatherlink.com 1.10,2013-05-05 06:49:00,
2013-05-05 02:04:00,39.0,36.0,30.14,NE,39,0.0,-999.0,90,-99.99,,,0.00,weatherlink.com 1.10,2013-05-05 07:04:00,
2013-05-05 02:19:00,38.9,37.0,30.14,NE,41,0.0,-999.0,91,-99.99,,,0.00,weatherlink.com 1.10,2013-05-05 07:19:00,
2013-05-05 02:34:00,38.9,37.0,30.14,WSW,247,0.0,-999.0,91,-99.99,,,0.00,weatherlink.com 1.10,2013-05-05 07:34:00,
2013-05-05 02:49:00,38.9,37.0,30.13,NNE,19,0.0,-999.0,91,-99.99,,,0.00,weatherlink.com 1.10,2013-05-05 07:49:00,
2013-05-05 03:04:00,38.9,37.0,30.13,NNE,17,0.0,-999.0,91,-99.99,,,0.00,weatherlink.com 1.10,2013-05-05 08:04:00,
2013-05-05 03:19:00,38.9,37.0,30.13,North,355,0.0,-999.0,91,-99.99,,,0.00,weatherlink.com 1.10,2013-05-05 08:19:00,
2013-05-05 03:34:00,38.8,36.0,30.14,NNE,30,0.0,-999.0,91,-99.99,,,0.00,weatherlink.com 1.10,2013-05-05 08:34:00,
2013-05-05 03:49:00,38.8,37.0,30.14,NNE,30,2.0,-999.0,92,-99.99,,,0.00,weatherlink.com 1.10,2013-05-05 08:49:00,
2013-05-05 04:04:00,38.8,37.0,30.14,North,355,0.0,-999.0,92,-99.99,,,0.00,weatherlink.com 1.10,2013-05-05 09:04:00,
2013-05-05 04:19:00,38.7,37.0,30.14,North,360,0.0,-999.0,92,-99.99,,,0.00,weatherlink.com 1.10,2013-05-05 09:19:00,
2013-05-05 04:34:00,38.6,37.0,30.14,NE,41,0.0,-999.0,92,-99.99,,,0.00,weatherlink.com 1.10,2013-05-05 09:34:00,
2013-05-05 04:49:00,38.6,37.0,30.14,NE,41,1.0,-999.0,92,-99.99,,,0.00,weatherlink.com 1.10,2013-05-05 09:49:00,
2013-05-05 05:04:00,38.6,37.0,30.14,NNE,28,0.0,-999.0,92,-99.99,,,0.00,weatherlink.com 1.10,2013-05-05 10:04:00,
2013-05-05 05:19:00,38.5,36.0,30.14,NNE,28,0.0,-999.0,92,-99.99,,,0.00,weatherlink.com 1.10,2013-05-05 10:19:00,
2013-05-05 05:34:00,38.6,37.0,30.14,NNE,28,0.0,-999.0,92,-99.99,,,0.00,weatherlink.com 1.10,2013-05-05 10:34:00,
2013-05-05 05:49:00,38.5,36.0,30.14,North,360,0.0,-999.0,92,-99.99,,,0.00,weatherlink.com 1.10,2013-05-05 10:49:00,
2013-05-05 06:04:00,38.4,36.0,30.15,North,5,1.0,-999.0,92,-99.99,,,0.00,weatherlink.com 1.10,2013-05-05 11:04:00,
2013-05-05 06:19:00,38.4,36.0,30.15,NNE,29,0.0,-999.0,92,-99.99,,,0.00,weatherlink.com 1.10,2013-05-05 11:19:00,
2013-05-05 06:34:00,38.4,36.0,30.15,ENE,75,0.0,-999.0,92,-99.99,,,0.00,weatherlink.com 1.10,2013-05-05 11:34:00,
2013-05-05 06:49:00,38.5,36.0,30.15,NE,45,0.0,-999.0,92,-99.99,,,0.00,weatherlink.com 1.10,2013-05-05 11:49:00,
2013-05-05 07:05:00,38.7,37.0,30.16,NNE,32,0.0,-999.0,92,-99.99,,,0.00,weatherlink.com 1.10,2013-05-05 12:05:00,
2013-05-05 07:19:00,38.9,37.0,30.16,NNE,31,0.0,-999.0,92,-99.99,,,0.00,weatherlink.com 1.10,2013-05-05 12:19:00,
2013-05-05 07:34:00,39.1,37.0,30.16,NNE,21,0.0,-999.0,93,-99.99,,,0.00,weatherlink.com 1.10,2013-05-05 12:34:00,
2013-05-05 07:49:00,39.6,38.0,30.15,NNE,13,0.0,-999.0,92,-99.99,,,0.00,weatherlink.com 1.10,2013-05-05 12:49:00,
2013-05-05 08:04:00,40.1,38.0,30.16,NNW,327,1.0,-999.0,92,-99.99,,,0.00,weatherlink.com 1.10,2013-05-05 13:04:00,
2013-05-05 08:19:00,40.3,38.0,30.16,NNW,345,1.0,-999.0,92,-99.99,,,0.00,weatherlink.com 1.10,2013-05-05 13:19:00,
2013-05-05 08:34:00,40.8,39.0,30.16,NNW,348,1.0,-999.0,92,-99.99,,,0.00,weatherlink.com 1.10,2013-05-05 13:34:00,
2013-05-05 08:49:00,41.1,39.0,30.16,ENE,65,3.0,-999.0,91,-99.99,,,0.00,weatherlink.com 1.10,2013-05-05 13:49:00,
2013-05-05 09:04:00,41.4,39.0,30.16,NE,55,0.0,-999.0,90,-99.99,,,0.00,weatherlink.com 1.10,2013-05-05 14:04:00,
2013-05-05 09:20:00,42.3,40.0,30.16,NNE,23,0.0,-999.0,90,-99.99,,,0.00,weatherlink.com 1.10,2013-05-05 14:20:00,
2013-05-05 09:35:00,43.1,40.0,30.16,East,84,0.0,-999.0,89,-99.99,,,0.00,weatherlink.com 1.10,2013-05-05 14:35:00,
2013-05-05 09:50:00,44.0,41.0,30.16,East,91,1.0,-999.0,88,-99.99,,,0.00,weatherlink.com 1.10,2013-05-05 14:50:00,
2013-05-05 10:05:00,45.0,41.0,30.16,ESE,121,3.0,-999.0,86,-99.99,,,0.00,weatherlink.com 1.10,2013-05-05 15:05:00,
2013-05-05 10:20:00,46.1,41.0,30.16,North,5,0.0,-999.0,83,-99.99,,,0.00,weatherlink.com 1.10,2013-05-05 15:20:00,
2013-05-05 10:35:00,46.6,41.0,30.15,ENE,57,0.0,-999.0,82,-99.99,,,0.00,weatherlink.com 1.10,2013-05-05 15:35:00,
2013-05-05 10:50:00,47.0,41.0,30.15,WSW,248,0.0,-999.0,81,-99.99,,,0.00,weatherlink.com 1.10,2013-05-05 15:50:00,
2013-05-05 11:05:00,46.6,41.0,30.15,NW,323,2.0,-999.0,81,-99.99,,,0.00,weatherlink.com 1.10,2013-05-05 16:05:00,
2013-05-05 11:20:00,47.9,43.0,30.14,ENE,60,2.0,-999.0,82,-99.99,,,0.00,weatherlink.com 1.10,2013-05-05 16:20:00,
2013-05-05 11:35:00,48.7,42.0,30.14,NW,316,0.0,-999.0,78,-99.99,,,0.00,weatherlink.com 1.10,2013-05-05 16:35:00,
2013-05-05 11:50:00,51.9,45.0,30.13,East,101,0.0,-999.0,76,-99.99,,,0.00,weatherlink.com 1.10,2013-05-05 16:50:00,
2013-05-05 12:05:00,55.1,45.0,30.13,North,5,0.0,-999.0,70,-99.99,,,0.00,weatherlink.com 1.10,2013-05-05 17:05:00,
2013-05-05 12:20:00,55.3,44.0,30.12,North,5,0.0,-999.0,67,-99.99,,,0.00,weatherlink.com 1.10,2013-05-05 17:20:00,
2013-05-05 12:35:00,56.0,47.0,30.11,North,11,0.0,-999.0,71,-99.99,,,0.00,weatherlink.com 1.10,2013-05-05 17:35:00,
2013-05-05 12:50:00,57.4,46.0,30.11,SW,219,0.0,-999.0,66,-99.99,,,0.00,weatherlink.com 1.10,2013-05-05 17:50:00,
2013-05-05 13:05:00,59.9,47.0,30.11,SE,126,1.0,-999.0,63,-99.99,,,0.00,weatherlink.com 1.10,2013-05-05 18:05:00,
2013-05-05 13:20:00,60.7,48.0,30.09,NE,40,0.0,-999.0,63,-99.99,,,0.00,weatherlink.com 1.10,2013-05-05 18:20:00,
2013-05-05 13:35:00,60.8,46.0,30.09,WSW,252,1.0,-999.0,59,-99.99,,,0.00,weatherlink.com 1.10,2013-05-05 18:35:00,
2013-05-05 13:50:00,62.2,49.0,30.09,East,84,1.0,-999.0,63,-99.99,,,0.00,weatherlink.com 1.10,2013-05-05 18:50:00,
2013-05-05 14:05:00,63.7,48.0,30.08,ESE,112,1.0,-999.0,57,-99.99,,,0.00,weatherlink.com 1.10,2013-05-05 19:05:00,
2013-05-05 14:20:00,64.8,48.0,30.08,ENE,58,0.0,-999.0,54,-99.99,,,0.00,weatherlink.com 1.10,2013-05-05 19:20:00,
2013-05-05 14:35:00,66.8,49.0,30.07,ENE,65,0.0,-999.0,53,-99.99,,,0.00,weatherlink.com 1.10,2013-05-05 19:35:00,
2013-05-05 14:51:00,68.4,49.0,30.07,ESE,113,0.0,-999.0,50,-99.99,,,0.00,weatherlink.com 1.10,2013-05-05 19:51:00,
2013-05-05 15:06:00,68.0,51.0,30.06,ENE,61,4.0,-999.0,54,-99.99,,,0.00,weatherlink.com 1.10,2013-05-05 20:06:00,
2013-05-05 15:21:00,69.4,50.0,30.05,North,360,0.0,-999.0,51,-99.99,,,0.00,weatherlink.com 1.10,2013-05-05 20:21:00,
2013-05-05 15:36:00,67.3,48.0,30.05,NNW,345,0.0,-999.0,51,-99.99,,,0.00,weatherlink.com 1.10,2013-05-05 20:36:00,
2013-05-05 15:51:00,71.6,51.0,30.04,NE,55,0.0,-999.0,49,-99.99,,,0.00,weatherlink.com 1.10,2013-05-05 20:51:00,
2013-05-05 16:06:00,70.6,49.0,30.04,East,91,3.0,-999.0,47,-99.99,,,0.00,weatherlink.com 1.10,2013-05-05 21:06:00,
2013-05-05 16:21:00,71.7,51.0,30.04,ESE,105,2.0,-999.0,48,-99.99,,,0.00,weatherlink.com 1.10,2013-05-05 21:21:00,
2013-05-05 16:36:00,72.4,50.0,30.03,NNW,339,0.0,-999.0,45,-99.99,,,0.00,weatherlink.com 1.10,2013-05-05 21:36:00,
2013-05-05 16:51:00,70.5,50.0,30.03,ENE,64,2.0,-999.0,49,-99.99,,,0.00,weatherlink.com 1.10,2013-05-05 21:51:00,
2013-05-05 17:06:00,69.6,50.0,30.03,North,349,2.0,-999.0,50,-99.99,,,0.00,weatherlink.com 1.10,2013-05-05 22:06:00,
2013-05-05 17:21:00,70.8,51.0,30.03,NE,41,0.0,-999.0,50,-99.99,,,0.00,weatherlink.com 1.10,2013-05-05 22:21:00,
2013-05-05 17:36:00,71.2,50.0,30.03,NE,40,1.0,-999.0,48,-99.99,,,0.00,weatherlink.com 1.10,2013-05-05 22:36:00,
2013-05-05 17:51:00,71.0,50.0,30.03,SW,226,1.0,-999.0,48,-99.99,,,0.00,weatherlink.com 1.10,2013-05-05 22:51:00,
2013-05-05 18:06:00,69.9,50.0,30.03,NNE,15,1.0,-999.0,49,-99.99,,,0.00,weatherlink.com 1.10,2013-05-05 23:06:00,
2013-05-05 18:21:00,68.3,50.0,30.03,NE,41,1.0,-999.0,52,-99.99,,,0.00,weatherlink.com 1.10,2013-05-05 23:21:00,
2013-05-05 18:36:00,67.2,50.0,30.03,NE,46,0.0,-999.0,55,-99.99,,,0.00,weatherlink.com 1.10,2013-05-05 23:36:00,
2013-05-05 18:51:00,66.2,50.0,30.03,NE,55,0.0,-999.0,56,-99.99,,,0.00,weatherlink.com 1.10,2013-05-05 23:51:00,
2013-05-05 19:06:00,65.9,50.0,30.03,NE,55,1.0,-999.0,56,-99.99,,,0.00,weatherlink.com 1.10,2013-05-06 00:06:00,
2013-05-05 19:21:00,65.8,50.0,30.03,NE,36,0.0,-999.0,57,-99.99,,,0.00,weatherlink.com 1.10,2013-05-06 00:21:00,
2013-05-05 19:36:00,65.6,50.0,30.03,ESE,109,1.0,-999.0,57,-99.99,,,0.00,weatherlink.com 1.10,2013-05-06 00:36:00,
2013-05-05 19:51:00,64.8,49.0,30.04,ESE,109,0.0,-999.0,57,-99.99,,,0.00,weatherlink.com 1.10,2013-05-06 00:51:00,
2013-05-05 20:06:00,63.9,49.0,30.03,ESE,109,0.0,-999.0,59,-99.99,,,0.00,weatherlink.com 1.10,2013-05-06 01:06:00,
2013-05-05 20:21:00,62.6,49.0,30.03,ESE,109,0.0,-999.0,61,-99.99,,,0.00,weatherlink.com 1.10,2013-05-06 01:21:00,
2013-05-05 20:36:00,61.3,48.0,30.03,ESE,109,0.0,-999.0,63,-99.99,,,0.00,weatherlink.com 1.10,2013-05-06 01:36:00,
2013-05-05 20:51:00,59.7,48.0,30.04,ESE,109,0.0,-999.0,65,-99.99,,,0.00,weatherlink.com 1.10,2013-05-06 01:51:00,
2013-05-05 21:06:00,58.0,48.0,30.04,East,101,0.0,-999.0,69,-99.99,,,0.00,weatherlink.com 1.10,2013-05-06 02:06:00,
2013-05-05 21:21:00,56.4,47.0,30.04,East,101,0.0,-999.0,72,-99.99,,,0.00,weatherlink.com 1.10,2013-05-06 02:21:00,
2013-05-05 21:36:00,55.3,48.0,30.04,East,101,0.0,-999.0,75,-99.99,,,0.00,weatherlink.com 1.10,2013-05-06 02:36:00,
2013-05-05 21:51:00,54.1,47.0,30.05,East,101,0.0,-999.0,77,-99.99,,,0.00,weatherlink.com 1.10,2013-05-06 02:51:00,
2013-05-05 22:06:00,53.4,47.0,30.05,East,101,0.0,-999.0,79,-99.99,,,0.00,weatherlink.com 1.10,2013-05-06 03:06:00,
2013-05-05 22:21:00,52.5,47.0,30.05,East,101,0.0,-999.0,80,-99.99,,,0.00,weatherlink.com 1.10,2013-05-06 03:21:00,
2013-05-05 22:36:00,51.7,46.0,30.05,East,101,0.0,-999.0,81,-99.99,,,0.00,weatherlink.com 1.10,2013-05-06 03:36:00,
2013-05-05 22:51:00,50.9,46.0,30.05,East,101,0.0,-999.0,82,-99.99,,,0.00,weatherlink.com 1.10,2013-05-06 03:51:00,
2013-05-05 23:06:00,50.3,45.0,30.05,East,101,0.0,-999.0,83,-99.99,,,0.00,weatherlink.com 1.10,2013-05-06 04:06:00,
2013-05-05 23:21:00,49.9,45.0,30.05,East,101,0.0,-999.0,84,-99.99,,,0.00,weatherlink.com 1.10,2013-05-06 04:21:00,
2013-05-05 23:36:00,49.2,45.0,30.05,East,101,0.0,-999.0,85,-99.99,,,0.00,weatherlink.com 1.10,2013-05-06 04:36:00,
2013-05-05 23:51:00,48.5,44.0,30.05,East,101,0.0,-999.0,85,-99.99,,,0.00,weatherlink.com 1.10,2013-05-06 04:51:00,